Location: Ailly
(50.0793°N, 1.9944°E)
Time: 08:57:54
(UTC+00:00)

Cosmos 1656 Rocket - Pass Details

Date: 15 January 2026
Orbit: 794 x 843 km, 71.1° (Epoch: 16 February)

Event Time Altitude Azimuth Distance (km) Brightness Sun altitude
Rises 07:04:08 0° 207° (SSW) 3,389 6.8 -6.6°
Reaches altitude 10° 07:06:34 10° 208° (SSW) 2,458 6.1 -6.2°
Maximum altitude 07:12:14 89° 297° (WNW) 849 3.8 -5.4°
Drops below altitude 10° 07:17:55 10° 29° (NNE) 2,462 6.2 -4.6°
Sets 07:20:22 0° 30° (NNE) 3,394 6.9 -4.2°
